DW6743 Weather Reports


Display with metric or nautical units.
time (UTC)temp
F
wind
direction
speed
MPH
gust
MPH
rain 1hr
in
rain 24hr
in
rain mn
in
humidity
%
barometer
mb
20260510023057 43 207 10.0 14.0 0.00 0.00 0.00 79 1016.1
20260510021804 43 204 9.0 14.0 0.00 0.00 0.00 81 1016.3
20260510021603 42 211 10.0 15.0 0.00 0.00 0.00 80 1016.2
20260510021304 43 208 10.0 14.0 0.00 0.00 0.00 81 1016.4
20260510020804 42 208 12.0 15.0 0.00 0.00 0.00 81 1016.3
20260510020304 42 209 10.0 14.0 0.00 0.00 0.00 82 1016.4
20260510020059 42 200 10.0 15.0 0.00 0.00 0.00 81 1016.4
20260510014621 41 199 10.0 12.0 0.00 0.00 0.00 82 1016.5
20260510014304 42 201 9.0 12.0 0.00 0.00 0.00 82 1016.7
20260510013804 42 200 9.0 12.0 0.00 0.00 0.00 82 1016.7
20260510013304 42 203 9.0 12.0 0.00 0.00 0.00 82 1016.8
20260510013104 41 204 8.0 11.0 0.00 0.00 0.00 82 1016.8
20260510011601 41 202 8.0 11.0 0.00 0.00 0.00 82 1017.0
20260510011304 42 197 9.0 12.0 0.00 0.00 0.00 83 1017.0
20260510010804 41 196 9.0 12.0 0.00 0.00 0.00 83 1017.1
20260510010304 41 195 8.0 12.0 0.00 0.00 0.00 82 1017.2
20260510010059 41 195 8.0 11.0 0.00 0.00 0.00 82 1017.1
20260510004804 41 203 9.0 10.0 0.00 0.00 0.00 82 1017.4
20260510004558 41 204 8.0 11.0 0.00 0.00 0.00 82 1017.3
20260510004304 41 204 9.0 12.0 0.00 0.00 0.00 83 1017.4
20260510003804 41 202 9.0 10.0 0.00 0.00 0.00 83 1017.4
20260510003107 41 201 9.0 10.0 0.00 0.00 0.00 82 1017.6
20260510001805 40 234 8.0 9.0 0.00 0.00 0.00 82 1017.7
20260510001557 40 234 8.0 10.0 0.00 0.00 0.00 81 1017.7
20260510001304 41 234 8.0 9.0 0.00 0.00 0.00 82 1017.7
20260510000804 41 234 9.0 10.0 0.00 0.00 0.00 82 1017.8
20260510000305 41 234 9.0 10.0 0.00 0.00 0.00 82 1017.9
20260510000059 41 234 9.0 10.0 0.00 0.00 0.00 81 1017.9
20260509234805 41 234 9.0 10.0 0.00 0.00 0.00 82 1018.1
20260509234605 41 234 8.0 10.0 0.00 0.00 0.00 81 1018.1
20260509234304 41 234 9.0 10.0 0.00 0.00 0.00 82 1018.1
20260509233804 41 234 9.0 10.0 0.00 0.00 0.00 82 1018.2
20260509233304 41 234 9.0 10.0 0.00 0.00 0.00 82 1018.2
20260509233057 41 234 8.0 10.0 0.00 0.00 0.00 81 1018.2
20260509231804 41 234 8.0 9.0 0.00 0.00 0.00 82 1018.3
20260509231559 41 234 8.0 10.0 0.00 0.00 0.00 81 1018.2
20260509230804 41 234 9.0 10.0 0.00 0.00 0.00 82 1018.4
20260509230304 41 234 8.0 10.0 0.00 0.00 0.00 81 1018.5
20260509230058 40 234 8.0 10.0 0.00 0.00 0.00 81 1018.5
20260509224611 40 250 7.0 9.0 0.00 0.00 0.00 80 1018.6
20260509224304 41 250 7.0 9.0 0.00 0.00 0.00 81 1018.7
20260509223804 41 282 5.0 7.0 0.00 0.00 0.00 80 1018.7
20260509223304 41 20 3.0 5.0 0.00 0.00 0.00 80 1018.6
20260509223104 40 20 3.0 5.0 0.00 0.00 0.00 79 1018.7
20260509221606 41 20 2.0 3.0 0.00 0.00 0.00 79 1018.7
20260509221304 41 20 2.0 3.0 0.00 0.00 0.00 79 1018.8
20260509220057 41 20 2.0 4.0 0.00 0.00 0.00 78 1018.8
20260509214805 42 20 3.0 3.0 0.00 0.00 0.00 78 1019.0
20260509214608 42 20 3.0 4.0 0.00 0.00 0.00 77 1019.0
20260509214304 42 20 3.0 3.0 0.00 0.00 0.00 78 1019.0
20260509213804 43 20 3.0 3.0 0.00 0.00 0.00 77 1019.2
20260509213305 43 20 4.0 5.0 0.00 0.00 0.00 78 1019.2
20260509213057 43 20 4.0 5.0 0.00 0.00 0.00 77 1019.1
20260509211559 43 20 4.0 5.0 0.00 0.00 0.00 76 1019.2
20260509211304 44 20 4.0 5.0 0.00 0.00 0.00 77 1019.3
20260509210804 44 20 3.0 5.0 0.00 0.00 0.00 77 1019.2
20260509210304 45 20 3.0 3.0 0.00 0.00 0.00 76 1019.2
20260509210115 44 20 3.0 4.0 0.00 0.00 0.00 76 1019.2
20260509204804 45 20 3.0 3.0 0.00 0.00 0.00 76 1019.2
20260509204559 45 20 3.0 4.0 0.00 0.00 0.00 75 1019.2
20260509204304 46 20 3.0 3.0 0.00 0.00 0.00 76 1019.2
20260509203804 46 20 3.0 3.0 0.00 0.00 0.00 76 1019.2
20260509203304 46 20 3.0 3.0 0.00 0.00 0.00 76 1019.2
20260509203056 46 20 3.0 4.0 0.00 0.00 0.00 75 1019.1
20260509201804 47 20 1.0 2.0 0.00 0.00 0.00 75 1019.2
20260509201601 47 20 1.0 2.0 0.00 0.00 0.00 74 1019.2
20260509200804 48 20 1.0 2.0 0.00 0.00 0.00 75 1019.2
20260509200304 48 20 0.0 0.0 0.00 0.00 0.00 74 1019.3
20260509200105 48 0 0.0 0.0 0.00 0.00 0.00 74 1019.3
20260509194804 49 20 0.0 0.0 0.00 0.00 0.00 73 1019.4
20260509194603 49 0 0.0 0.0 0.00 0.00 0.00 73 1019.3
20260509194304 50 20 0.0 0.0 0.00 0.00 0.00 73 1019.3
20260509193804 50 20 0.0 0.0 0.00 0.00 0.00 73 1019.3
20260509193304 50 20 0.0 0.0 0.00 0.00 0.00 72 1019.3
20260509193058 50 0 0.0 0.0 0.00 0.00 0.00 72 1019.3
20260509191804 52 20 0.0 0.0 0.00 0.00 0.00 70 1019.3
20260509191603 51 0 0.0 0.0 0.00 0.00 0.00 70 1019.2
20260509191304 52 20 0.0 0.0 0.00 0.00 0.00 70 1019.3
20260509190806 52 20 0.0 0.0 0.00 0.00 0.00 69 1019.3
20260509190108 53 0 0.0 2.0 0.00 0.00 0.00 68 1019.2
20260509184804 55 20 0.0 0.0 0.00 0.00 0.00 66 1019.1
20260509184556 54 0 0.0 1.0 0.00 0.00 0.00 65 1019.1
20260509184304 55 20 0.0 0.0 0.00 0.00 0.00 65 1019.2
20260509183805 55 20 0.0 2.0 0.00 0.00 0.00 65 1019.2
20260509183304 55 20 1.0 3.0 0.00 0.00 0.00 65 1019.2
20260509183057 55 0 0.0 3.0 0.00 0.00 0.00 64 1019.2
20260509181601 56 20 1.0 4.0 0.00 0.00 0.00 64 1019.1
20260509181304 56 20 2.0 3.0 0.00 0.00 0.00 63 1019.2
20260509180304 57 3 3.0 5.0 0.00 0.00 0.00 65 1019.3
20260509180100 56 1 1.0 4.0 0.00 0.00 0.00 64 1019.3
20260509174804 57 1 3.0 5.0 0.00 0.00 0.00 61 1019.3
20260509174557 57 1 3.0 5.0 0.00 0.00 0.00 61 1019.2
20260509174304 57 0 3.0 5.0 0.00 0.00 0.00 61 1019.3
20260509173804 57 21 3.0 5.0 0.00 0.00 0.00 60 1019.4
20260509173304 57 21 4.0 5.0 0.00 0.00 0.00 58 1019.4
20260509173057 57 21 3.0 5.0 0.00 0.00 0.00 59 1019.4
20260509171804 57 26 3.0 5.0 0.00 0.00 0.00 56 1019.5
20260509171557 57 26 3.0 6.0 0.00 0.00 0.00 55 1019.5
20260509170804 57 26 4.0 6.0 0.00 0.00 0.00 60 1019.5
20260509170304 57 11 3.0 5.0 0.00 0.00 0.00 61 1019.6
20260509170106 57 4 2.0 7.0 0.00 0.00 0.00 61 1019.5
20260509164804 57 14 3.0 8.0 0.00 0.00 0.00 58 1019.8
20260509164559 57 12 4.0 8.0 0.00 0.00 0.00 57 1019.7
20260509163804 58 15 4.0 5.0 0.00 0.00 0.00 58 1019.8
20260509163304 58 45 4.0 8.0 0.00 0.00 0.00 58 1019.9
20260509163059 58 50 1.0 8.0 0.00 0.00 0.00 58 1019.8
20260509161804 57 38 3.0 6.0 0.00 0.00 0.00 61 1020.1
20260509161600 57 39 3.0 9.0 0.00 0.00 0.00 60 1020.1
20260509161304 57 25 5.0 9.0 0.00 0.00 0.00 61 1020.1
20260509160804 58 18 2.0 5.0 0.00 0.00 0.00 61 1020.1
20260509160304 57 14 1.0 8.0 0.00 0.00 0.00 61 1020.3
20260509160058 57 316 2.0 8.0 0.00 0.00 0.00 60 1020.2
20260509154601 56 11 5.0 10.0 0.00 0.00 0.00 60 1020.5
20260509153804 57 353 5.0 8.0 0.00 0.00 0.00 60 1020.7
20260509153305 57 351 5.0 9.0 0.00 0.00 0.00 61 1020.7
20260509153102 56 360 5.0 9.0 0.00 0.00 0.00 61 1020.6
20260509151804 57 337 5.0 9.0 0.00 0.00 0.00 61 1020.9
20260509151604 56 310 5.0 10.0 0.00 0.00 0.00 60 1020.8
20260509151304 57 335 6.0 10.0 0.00 0.00 0.00 61 1020.9
20260509150804 57 351 5.0 8.0 0.00 0.00 0.00 62 1021.0
20260509150304 57 354 7.0 10.0 0.00 0.00 0.00 62 1021.1
20260509150100 56 350 7.0 10.0 0.00 0.00 0.00 62 1021.1
20260509144805 56 4 5.0 8.0 0.00 0.00 0.00 62 1021.3
20260509144605 56 329 5.0 10.0 0.00 0.00 0.00 62 1021.2
20260509144304 56 1 7.0 10.0 0.00 0.00 0.00 61 1021.3
20260509143304 56 343 7.0 12.0 0.00 0.00 0.00 62 1021.3
20260509143058 56 321 5.0 11.0 0.00 0.00 0.00 62 1021.2
20260509141804 57 8 9.0 12.0 0.00 0.00 0.00 62 1021.5
20260509141557 56 4 8.0 12.0 0.00 0.00 0.00 61 1021.5
20260509140804 57 6 10.0 12.0 0.00 0.00 0.00 63 1021.6
20260509140304 57 16 9.0 13.0 0.00 0.00 0.00 64 1021.7
20260509140105 57 350 8.0 13.0 0.00 0.00 0.00 63 1021.8
20260509134804 56 11 9.0 12.0 0.00 0.00 0.00 65 1021.8
20260509134630 56 17 9.0 14.0 0.00 0.00 0.00 65 1021.9
20260509133804 57 0 7.0 12.0 0.00 0.00 0.00 64 1022.0
20260509133304 57 333 10.0 12.0 0.00 0.00 0.00 66 1022.0
20260509133110 56 340 7.0 12.0 0.00 0.00 0.00 65 1021.9
20260509131557 55 297 8.0 13.0 0.00 0.00 0.00 65 1022.1
20260509130804 56 324 10.0 13.0 0.00 0.00 0.00 64 1022.3
20260509130305 56 332 10.0 12.0 0.00 0.00 0.00 65 1022.3
20260509130111 56 319 9.0 13.0 0.00 0.00 0.00 64 1022.3
20260509124804 56 318 10.0 13.0 0.00 0.00 0.00 65 1022.4
20260509124602 56 323 9.0 13.0 0.00 0.00 0.00 65 1022.4
20260509124304 56 314 8.0 12.0 0.00 0.00 0.00 65 1022.5
20260509123057 56 354 9.0 13.0 0.00 0.00 0.00 64 1022.5
20260509121804 56 329 9.0 12.0 0.00 0.00 0.00 62 1022.7
20260509121557 56 331 8.0 13.0 0.00 0.00 0.00 62 1022.7
20260509121304 56 323 9.0 13.0 0.00 0.00 0.00 62 1022.8
20260509120804 57 332 8.0 13.0 0.00 0.00 0.00 62 1022.8
20260509120057 56 323 8.0 13.0 0.00 0.00 0.00 61 1022.9
20260509114804 56 352 10.0 13.0 0.00 0.00 0.00 60 1023.0
20260509114558 56 331 10.0 13.0 0.00 0.00 0.00 60 1023.0
20260509114304 57 323 10.0 12.0 0.00 0.00 0.00 59 1023.1
20260509113804 56 330 9.0 12.0 0.00 0.00 0.00 60 1023.1
20260509113304 56 322 8.0 13.0 0.00 0.00 0.00 59 1023.1
20260509113058 55 306 8.0 13.0 0.00 0.00 0.00 59 1023.0
20260509111804 56 321 10.0 12.0 0.00 0.00 0.00 55 1023.1
20260509111557 55 314 8.0 13.0 0.00 0.00 0.00 55 1023.1
20260509111304 56 318 9.0 13.0 0.00 0.00 0.00 54 1023.1
20260509110804 56 320 11.0 13.0 0.00 0.00 0.00 54 1023.2
20260509110304 55 318 10.0 12.0 0.00 0.00 0.00 56 1023.2
20260509110055 55 316 9.0 12.0 0.00 0.00 0.00 55 1023.1
20260509104804 55 318 10.0 12.0 0.00 0.00 0.00 54 1023.3
20260509104555 55 318 9.0 13.0 0.00 0.00 0.00 55 1023.3
20260509104304 56 322 8.0 12.0 0.00 0.00 0.00 57 1023.5
20260509103304 55 314 10.0 14.0 0.00 0.00 0.00 58 1023.6
20260509103058 54 333 9.0 14.0 0.00 0.00 0.00 57 1023.5
20260509101804 55 319 10.0 14.0 0.00 0.00 0.00 65 1023.6
20260509101605 55 333 10.0 13.0 0.00 0.00 0.00 65 1023.5
20260509101304 55 320 9.0 12.0 0.00 0.00 0.00 64 1023.7
20260509100804 55 336 8.0 12.0 0.00 0.00 0.00 64 1023.7
20260509100305 55 342 8.0 14.0 0.00 0.00 0.00 65 1023.8
20260509100057 55 300 9.0 14.0 0.00 0.00 0.00 65 1023.6
20260509094558 55 316 10.0 14.0 0.00 0.00 0.00 67 1023.9
20260509093304 55 354 5.0 12.0 0.00 0.00 0.00 72 1023.8
20260509093100 55 325 7.0 11.0 0.00 0.00 0.00 72 1023.8
20260509091804 55 322 5.0 10.0 0.00 0.00 0.00 73 1024.0
20260509091602 54 350 6.0 11.0 0.00 0.00 0.00 72 1024.0
20260509091304 54 332 7.0 10.0 0.00 0.00 0.00 74 1024.0
20260509090305 54 321 9.0 12.0 0.00 0.00 0.00 76 1024.0
20260509090100 54 323 7.0 12.0 0.00 0.00 0.00 75 1024.0
20260509084804 54 319 8.0 10.0 0.00 0.00 0.00 76 1024.0
20260509084600 53 318 7.0 10.0 0.00 0.00 0.00 76 1024.0
20260509084304 53 329 8.0 10.0 0.00 0.00 0.00 76 1024.0
20260509083805 54 332 7.0 9.0 0.00 0.00 0.00 76 1024.1
20260509083304 54 325 7.0 10.0 0.00 0.00 0.00 76 1024.0
20260509083101 53 323 6.0 10.0 0.00 0.00 0.00 76 1024.0
20260509081804 53 307 7.0 9.0 0.00 0.00 0.00 76 1024.2
20260509081558 53 304 7.0 11.0 0.00 0.00 0.00 76 1024.2
20260509081304 54 303 7.0 12.0 0.00 0.00 0.00 76 1024.2
20260509080804 54 308 7.0 10.0 0.00 0.00 0.00 76 1024.2
20260509080057 54 345 5.0 9.0 0.00 0.00 0.00 75 1024.1
20260509074804 55 302 5.0 8.0 0.00 0.00 0.00 74 1024.2
20260509074605 54 286 5.0 8.0 0.00 0.00 0.00 73 1024.1
20260509074304 55 301 6.0 8.0 0.00 0.00 0.00 74 1024.2
20260509073804 54 292 5.0 7.0 0.00 0.00 0.00 74 1024.2
20260509073101 54 273 3.0 6.0 0.00 0.00 0.00 73 1024.1
20260509071804 54 318 3.0 5.0 0.00 0.00 0.00 73 1024.2
20260509071605 54 318 2.0 4.0 0.00 0.00 0.00 72 1024.1
20260509071304 54 278 2.0 3.0 0.00 0.00 0.00 72 1024.2
20260509070804 54 204 2.0 3.0 0.00 0.00 0.00 72 1024.1
20260509070059 54 204 1.0 4.0 0.00 0.00 0.00 71 1024.0
20260509064804 53 204 3.0 5.0 0.00 0.00 0.00 73 1024.1
20260509064618 52 204 3.0 6.0 0.00 0.00 0.00 72 1024.1
20260509064304 52 204 3.0 6.0 0.00 0.00 0.00 72 1024.1
20260509063804 52 204 5.0 6.0 0.00 0.00 0.00 72 1024.0
20260509063305 52 199 3.0 6.0 0.00 0.00 0.00 73 1024.1
20260509063100 51 192 4.0 6.0 0.00 0.00 0.00 73 1024.0
20260509061622 50 0 3.0 6.0 0.00 0.00 0.00 74 1024.1
20260509061304 51 155 2.0 5.0 0.00 0.00 0.00 75 1024.1
20260509060306 50 184 6.0 8.0 0.00 0.00 0.00 76 1024.0
20260509060058 50 174 5.0 8.0 0.00 0.00 0.00 75 1024.0
20260509054804 49 178 7.0 9.0 0.00 0.00 0.00 77 1024.0
20260509054559 48 178 6.0 10.0 0.00 0.00 0.00 77 1023.9
20260509053804 48 171 6.0 10.0 0.00 0.00 0.00 78 1024.0
20260509053102 47 167 7.0 10.0 0.00 0.00 0.00 79 1023.9
20260509051804 46 176 8.0 10.0 0.00 0.00 0.00 80 1023.9
20260509051607 46 180 8.0 10.0 0.00 0.00 0.00 80 1024.0
20260509051304 46 179 9.0 10.0 0.00 0.00 0.00 81 1024.0
20260509050804 45 177 9.0 10.0 0.00 0.00 0.00 81 1024.0
20260509050304 45 177 9.0 10.0 0.00 0.00 0.00 82 1024.0
20260509050105 44 177 9.0 10.0 0.00 0.00 0.00 81 1023.9
20260509044804 44 174 9.0 10.0 0.00 0.00 0.00 82 1023.9
20260509044610 43 171 8.0 10.0 0.00 0.00 0.00 82 1023.9
20260509044304 43 175 8.0 10.0 0.00 0.00 0.00 83 1023.9
20260509043804 43 173 8.0 10.0 0.00 0.00 0.00 83 1023.9
20260509043304 43 174 9.0 12.0 0.00 0.00 0.00 83 1023.9
20260509043106 42 182 9.0 11.0 0.00 0.00 0.00 83 1023.8
20260509041804 42 177 10.0 12.0 0.00 0.00 0.00 84 1023.8
20260509041606 41 177 9.0 11.0 0.00 0.00 0.00 83 1023.8
20260509041304 42 179 10.0 12.0 0.00 0.00 0.00 84 1023.9
20260509040804 41 179 10.0 12.0 0.00 0.00 0.00 84 1023.9
20260509040106 40 180 10.0 11.0 0.00 0.00 0.00 84 1023.9
20260509034804 40 183 9.0 10.0 0.00 0.00 0.00 84 1024.1
20260509034558 40 183 9.0 10.0 0.00 0.00 0.00 83 1024.1
20260509034304 40 186 9.0 10.0 0.00 0.00 0.00 84 1024.0
20260509033804 40 186 9.0 10.0 0.00 0.00 0.00 84 1024.1
20260509033059 40 188 8.0 10.0 0.00 0.00 0.00 83 1024.1
20260509031804 40 191 8.0 10.0 0.00 0.00 0.00 83 1024.0
20260509031600 39 195 7.0 9.0 0.00 0.00 0.00 83 1024.1
20260509031304 39 197 7.0 9.0 0.00 0.00 0.00 83 1024.1
20260509030804 39 196 7.0 8.0 0.00 0.00 0.00 83 1024.1
20260509030304 40 197 7.0 9.0 0.00 0.00 0.00 83 1024.2
20260509030056 39 197 7.0 9.0 0.00 0.00 0.00 83 1024.1
20260509024558 39 186 7.0 9.0 0.00 0.00 0.00 82 1024.1
20260509023804 40 202 6.0 7.0 0.00 0.00 0.00 82 1024.2
20260509023304 40 202 6.0 8.0 0.00 0.00 0.00 82 1024.3